カタログに戻る

BREEZE-M DEB

運用中HEO
NORAD 38578·DEBRIS·🇷🇺 Russia

打ち上げ Mar 14, 2008 から Baikonur Cosmodrome

Loading…

次のパス (今後24時間)

TLE

経年Source: Space-Track

元期: Sep 3, 2026, 08:05 UTC

1 38578U 08011Z   26246.33717295  .00000033  00000-0  54167-3 0  9990
2 38578  47.5659 273.2773 6428969  82.0252 341.5454  3.13313226 51706

AllMySatでBREEZE-M DEBをリアルタイム追跡

Download on the App Store